Regional Weather Roundup
Issued by NWS

Home | Current Version | Previous Version | Graphics & Text | Print | Product List | Glossary On
Versions: 1 2 3 4 5 6 7 8 9 10 11 12 13 14 15 16 17 18 19 20 21 22 23 24 25 26 27 28 29 30 31 32 33 34 35 36 37
000
ASUS45 KBOU 220207
RWRCO

WEATHER ROUNDUP FOR COLORADO
NATIONAL WEATHER SERVICE DENVER/BOULDER CO
800 PM MDT TUE OCT 21 2014

NOTE: "FAIR" INDICATES FEW OR NO CLOUDS BELOW 12000 FEET WITH NO
SIGNIFICANT WEATHER AND/OR OBSTRUCTIONS TO VISIBILITY.

COZ001>005-013-030-031-220300-
...NORTHWEST COLORADO...

CITY           SKY/WX    TMP DP  RH WIND       PRES   REMARKS
CRAIG          CLOUDY    54  38  54 VRB3      30.05R
HAYDEN         CLOUDY    50  39  66 E5        30.04R
MEEKER         PTCLDY    51  39  63 CALM      30.03R
MOUNT WERNER   NOT AVBL
STEAMBOAT SPGS CLOUDY    51  38  60 CALM      30.05R
WALDEN         CLOUDY    46  36  66 CALM      30.11R
$$

COZ006>008-011-220300-
...WEST CENTRAL VALLEYS...

CITY           SKY/WX    TMP DP  RH WIND       PRES   REMARKS
GRAND JUNCTION MOCLDY    54  46  74 S9        29.97R
MONTROSE       MOCLDY    54  45  71 E8        30.04R
EAGLE          MOCLDY    54  43  66 E3        30.07S
RIFLE          MOCLDY    54  48  80 CALM      30.01R
DELTA          PTCLDY    61  45  57 N8        30.01S
NUCLA          PTCLDY    57  37  47 SE6       30.07R
$$

COZ017>023-064>068-220300-
...SOUTHWEST COLORADO...

CITY           SKY/WX    TMP DP  RH WIND       PRES   REMARKS
DURANGO        PTCLDY    50  46  86 SE5       30.11R
CORTEZ         MOCLDY    52  41  66 E6        30.06R
PAGOSA SPRINGS MOCLDY    49  42  76 CALM      30.17R
TELLURIDE      PTCLDY    48  38  67 W3        30.22R
WOLF CREEK PAS CLOUDY    32  32 100 SW13        N/A  FOG     WCI  22
$$

COZ009-010-012-014-032>034-037-058>063-220300-
...CENTRAL COLORADO...

CITY           SKY/WX    TMP DP  RH WIND       PRES   REMARKS
ASPEN          MOCLDY    45  40  82 S8        30.11F
BUENA VISTA    CLOUDY    53  36  53 W9        30.13R
COPPER MTN     SNOW      36  32  87 S10G24    30.33R VSB<1/4
BERTHOUD PASS  HVY SNOW  28  27  93 NW13G23   30.35R VSB 1/4 WCI  18
COTTONWOOD PAS CLOUDY    46  34  61 W5        30.22R
GUNNISON       MOCLDY    48  36  61 N8        30.16S
KREMMLING      CLOUDY    50  36  57 CALM        N/A
LEADVILLE      CLOUDY    38  36  92 NE7       30.22R
MONARCH PASS   SNOW      32  32 100 MISG      30.42R VSB 1/4
SALIDA         CLOUDY    52  41  67 W22G28    30.19R
SUNLIGHT       MOCLDY    37  36  93 CALM      30.27R
WILKERSON PASS NOT AVBL
$$

COZ069>075-220300-
...SAN LUIS VALLEY/SANGRE DE CRISTO MOUNTAINS...

CITY           SKY/WX    TMP DP  RH WIND       PRES   REMARKS
ALAMOSA        PTCLDY    50  38  63 S13       30.11R
LA VETA PASS   PTCLDY    39  34  81 S14G22    30.23S
SAGUACHE       CLOUDY    54  37  54 NW9       30.14R
$$

COZ035-036-038>040-220300-
...NORTHERN COLORADO FRONT RANGE...

CITY           SKY/WX    TMP DP  RH WIND       PRES   REMARKS
DENVER INTL AP MOCLDY    66  37  34 SW7       29.93R
DMNS CITY PARK   N/A     66  37  33 NE10      29.93R
AURORA         MOCLDY    61  40  45 SE3       29.95R
FRONT RANGE AP NOT AVBL
ERIE MUNI ARPT CLOUDY    62  41  46 CALM      29.92R
BOULDER MUN AP CLOUDY    64  37  36 W21G26    29.93R
CENTENNIAL     MOCLDY    63  37  38 S10       29.95R
BROOMFIELD     MOCLDY    66  36  32 W20       29.95R
FORT COLLINS   PTCLDY    61  43  51 N6        29.93R
LONGMONT       CLOUDY    66  37  34 W7        29.94R
$$

COZ041-046-047-076>085-087-088-220300-
...PIKES PEAK/PALMER DIVIDE AND SOUTHERN FOOTHILLS...

CITY           SKY/WX    TMP DP  RH WIND       PRES   REMARKS
COLO. SPRINGS  PTCLDY    58  39  49 E9        29.99S
A. F. ACADEMY  MOCLDY    48  36  64 N8        30.01R
ELLICOTT       PTCLDY    56  41  57 SE10      29.98S
FALCON         PTCLDY    53  37  53 CALM      30.04S
FORT CARSON    PTCLDY    55  37  49 N2        29.96R
LIMON          PTCLDY    52  38  58 CALM      29.96R
MONUMENT HILL  CLOUDY    48  34  57 S9        30.03R
TRINIDAD       PTCLDY    61  44  53 S22G31    30.00R
$$

COZ042>045-048>051-090-091-220300-
...NORTHEAST COLORADO...

CITY           SKY/WX    TMP DP  RH WIND       PRES   REMARKS
GREELEY ARPT   MOCLDY    61  39  44 W6        29.91R
AKRON          CLEAR     61  40  45 S13       29.91R
BURLINGTON     CLEAR     64  42  44 S15       29.95R
WRAY           PTCLDY    68  40  36 SE14G20   29.89S
STERLING       CLEAR     59  43  55 S6        29.86S
HOLYOKE        PTCLDY    63  45  51 S7        29.89S
FORT MORGAN    CLEAR     61  37  41 SE7       29.89R
$$

COZ086-089-092>099-220300-
...SOUTHEAST COLORADO...

CITY           SKY/WX    TMP DP  RH WIND       PRES   REMARKS
PUEBLO         CLEAR     63  40  42 SE3       29.89R
LA JUNTA       CLEAR     67  44  43 S12       29.92R
LAMAR          CLEAR     67  47  48 S16       29.92R
SPRINGFIELD      N/A     59  47  64 S13       30.01R
$$



USA.gov is the U.S. government's official web portal to all federal, state and local government web resources and services.